Theta_e
274 274 273 273 273 274 274 273 274 273 273 274 274 274 274 275 276 275 275 276 276 276 276 277 277 277 277 277 277 277 277 277 277 278 279 281 281 280 280 281 282 283
273 274 275 274 273 274 273 273 273 273 273 273 274 274 275 275 275 275 275 275 276 276 276 277 277 277 276 276 277 277 277 277 276 278 278 279 279 280 281 282 282 283
272 272 272 271 271 272 272 272 273 273 273 273 274 274 275 275 275 275 275 276 276 276 276 276 276 276 276 276 276 276 276 276 276 277 277 276 276 277 278 280 282 283
272 272 271 271 271 271 272 272 272 273 273 273 273 274 275 275 275 275 275 276 275 275 276 276 276 276 276 275 275 275 275 275 275 276 275 276 277 277 278 280 282 283
271 271 271 271 271 271 271 271 271 272 272 272 273 274 274 274 274 274 274 275 275 275 275 275 275 275 275 275 275 274 275 275 275 276 276 276 277 279 280 279 279 279
271 271 271 271 271 271 270 270 271 271 271 272 272 273 273 273 273 273 273 273 274 274 274 275 275 275 275 274 274 274 274 274 274 275 274 275 276 276 277 277 277 278
269 270 269 270 270 270 270 270 270 271 271 271 272 271 272 272 272 272 273 273 274 274 274 274 274 274 274 273 273 272 273 273 273 274 273 274 275 275 275 275 276 277
269 269 269 269 269 269 269 269 270 270 270 270 270 270 271 271 271 272 272 273 273 273 273 273 273 273 273 273 272 271 271 272 272 272 273 273 274 274 274 275 276 276
269 268 268 268 268 268 268 268 269 269 270 269 269 270 270 271 271 271 271 272 272 272 272 271 272 272 272 272 271 271 270 271 271 272 272 272 272 272 273 274 274 274
268 268 268 268 267 268 267 268 268 268 269 268 269 269 269 270 271 270 271 271 270 270 270 270 270 270 270 270 270 270 270 270 271 271 272 272 272 272 272 273 272 273
267 267 267 267 267 267 267 267 267 268 268 268 268 269 269 269 269 270 269 269 269 268 268 268 268 268 268 269 269 270 270 270 270 270 271 272 272 272 273 272 272 272
267 267 267 267 267 267 267 267 267 267 267 268 268 268 268 268 268 268 268 267 267 267 267 267 267 267 268 268 268 269 269 269 270 270 270 271 271 272 272 272 272 272
266 266 266 266 266 266 266 267 267 266 267 267 268 267 266 266 266 266 266 266 266 266 266 266 266 266 266 267 267 268 268 268 269 269 270 271 271 271 272 272 272 272
266 266 266 266 266 266 266 266 266 266 266 266 265 265 264 264 264 264 265 265 265 265 265 265 265 265 266 266 267 267 268 268 268 269 269 270 271 271 272 272 272 272
266 266 266 265 265 265 265 264 264 264 264 264 263 263 263 263 263 263 263 263 264 264 264 265 265 265 266 266 266 267 268 268 268 269 269 269 270 270 271 271 272 272
265 265 265 264 264 263 263 263 262 262 262 262 262 262 262 262 262 262 262 262 262 263 264 264 264 265 267 271 272 269 269 270 270 270 270 270 270 270 270 271 272 272
264 264 263 263 262 262 261 261 261 261 260 260 260 260 260 261 261 261 261 262 262 263 263 264 265 266 270 272 273 275 272 271 271 271 272 271 271 271 270 271 272 274
263 263 262 261 261 260 260 260 259 259 259 259 259 259 260 260 260 261 261 262 263 263 264 264 265 269 272 273 274 275 275 272 272 272 272 272 272 272 272 273 273 273
262 261 260 260 260 259 259 258 258 258 258 258 258 259 260 260 260 261 262 263 263 263 264 264 265 270 272 273 274 275 276 275 273 273 272 272 273 273 273 273 273 273
261 260 259 259 259 258 258 258 257 257 258 259 259 260 260 261 261 262 263 263 263 263 263 264 264 268 272 273 274 275 276 276 274 274 273 273 273 273 274 273 273 273
260 259 258 258 258 258 257 257 257 258 258 259 259 260 260 261 261 261 261 262 262 263 263 263 264 270 272 273 274 275 276 277 274 274 275 275 275 275 274 274 274 275
259 258 258 257 257 257 256 257 257 258 258 259 260 260 261 261 261 262 261 261 262 262 262 262 263 270 271 272 274 275 277 274 274 274 275 274 274 275 275 275 275 275
259 258 257 256 256 256 256 256 257 257 258 260 260 260 260 260 260 261 261 261 261 261 262 262 263 267 271 273 274 275 275 273 274 275 275 275 275 275 275 275 275 275
258 257 256 256 256 255 256 257 257 258 259 260 259 259 259 260 260 260 260 261 261 261 262 262 264 267 271 272 273 275 275 273 273 273 274 275 275 275 275 276 276 278
256 256 256 255 255 255 256 256 257 258 259 260 260 259 259 260 260 260 260 260 261 261 265 264 263 265 270 271 273 274 274 273 273 273 273 273 274 275 276 276 276 277
256 255 255 255 255 255 256 257 258 258 259 259 259 259 259 259 259 259 259 260 261 262 262 263 263 264 266 272 274 274 275 272 272 271 271 272 274 275 275 275 276 276
Wind_Speed
3 3 5 5 6 6 7 9 8 9 10 9 10 10 10 10 10 9 11 10 10 11 11 11 12 12 12 13 14 14 14 14 14 13 15 14 14 16 17 19 19 16
4 4 5 5 6 6 7 8 10 9 10 10 10 10 10 10 11 10 11 11 11 12 12 11 12 13 14 12 12 13 14 14 15 12 14 15 14 14 15 17 17 17
4 4 5 6 7 9 9 9 9 9 9 10 11 10 11 10 11 11 11 11 12 12 12 13 12 13 13 14 14 13 14 15 15 13 15 16 16 18 17 17 15 17
3 4 5 6 7 9 9 9 9 9 9 10 10 10 11 11 11 13 12 14 13 14 15 14 12 13 14 15 15 14 15 16 16 16 16 15 16 16 17 16 16 13
4 5 5 6 7 8 8 9 10 10 10 10 11 11 11 12 12 13 13 14 13 14 13 15 16 15 15 15 15 14 13 14 14 15 15 16 15 13 11 11 13 15
3 4 6 7 8 8 9 10 10 10 11 11 11 11 11 13 13 14 14 14 13 14 16 13 16 16 14 15 13 14 13 14 14 16 17 18 17 16 12 13 15 16
5 5 7 7 8 8 10 10 10 11 10 10 11 12 12 14 13 14 15 15 16 16 15 16 15 16 14 13 13 14 14 15 17 17 19 17 16 18 16 16 18 19
6 5 6 7 9 10 10 10 10 10 11 11 13 13 12 14 15 14 14 16 16 17 16 17 16 17 17 14 14 15 15 13 14 18 19 19 17 17 18 16 15 16
6 7 8 8 9 9 9 10 10 11 10 13 13 13 12 13 14 15 16 16 17 17 18 16 18 16 15 15 17 17 16 15 15 17 19 19 19 19 18 17 18 17
7 7 7 8 9 8 10 10 11 11 11 12 13 13 14 14 14 15 16 16 17 18 17 19 18 17 17 16 17 18 16 17 16 16 17 19 19 19 17 17 19 19
8 7 8 8 9 9 11 11 11 11 11 12 12 13 13 13 14 14 15 16 16 18 19 18 19 18 19 19 17 17 17 18 18 18 18 18 19 18 19 19 19 19
7 8 9 10 10 10 11 11 11 11 12 12 12 14 14 14 15 15 14 17 18 18 19 19 18 18 18 19 19 18 17 17 17 18 19 19 19 19 19 18 19 19
8 7 8 9 9 10 10 11 12 11 11 12 12 13 14 16 16 16 16 16 18 18 18 19 19 19 19 19 19 19 19 19 19 19 19 17 17 17 18 17 19 19
8 8 8 9 9 9 11 11 11 11 12 12 12 14 14 15 16 17 17 16 17 18 19 18 19 19 19 19 18 18 18 18 18 18 18 18 17 17 17 17 19 19
8 8 8 8 9 10 9 10 10 11 11 12 12 13 13 14 15 16 17 18 18 18 19 18 17 17 15 15 16 17 17 18 18 18 18 17 17 17 17 17 17 18
8 8 8 9 9 10 10 10 11 11 11 12 13 13 13 13 14 15 16 17 19 19 18 16 16 14 19 28 25 19 18 16 15 15 16 17 17 17 16 16 17 17
7 7 8 9 9 9 9 11 12 11 12 12 12 12 12 12 13 15 15 16 18 19 19 17 15 15 27 27 28 30 23 19 17 16 15 15 13 14 14 15 15 17
7 8 8 8 9 10 11 11 11 11 11 12 12 13 12 11 13 14 14 16 16 17 18 17 17 22 29 28 29 29 27 20 17 16 15 15 16 17 15 15 17 18
6 7 7 8 9 10 10 10 11 11 12 12 13 12 12 13 12 14 15 14 15 18 18 18 18 24 27 29 29 30 30 25 17 17 16 16 17 17 15 16 15 16
5 5 7 8 9 10 9 10 11 11 11 11 11 12 12 13 13 14 14 15 17 18 18 18 19 23 29 29 29 30 31 27 17 18 16 16 16 17 16 16 15 17
5 6 7 8 9 9 10 10 10 11 11 10 10 11 11 11 13 15 14 15 16 16 17 18 17 28 29 31 30 30 30 27 16 16 14 13 14 16 16 16 16 16
4 6 7 8 10 9 10 11 11 10 12 12 10 10 10 11 11 12 14 15 14 16 17 19 19 28 30 31 32 30 31 18 15 15 13 12 11 14 15 15 15 16
5 6 7 8 9 10 11 11 12 12 11 9 11 11 12 12 12 11 11 13 15 15 17 18 18 24 29 31 30 30 24 14 14 12 11 13 13 14 14 15 17 18
5 5 6 8 9 10 11 11 10 9 9 9 11 12 13 12 12 12 11 12 14 16 15 18 18 24 30 29 29 29 24 16 14 13 14 13 14 14 11 13 17 28
4 5 6 7 8 10 9 11 11 10 10 9 9 10 11 11 11 12 12 12 12 15 22 22 18 21 29 29 29 28 22 14 13 12 13 12 12 11 11 12 12 16
3 4 6 7 9 10 9 9 10 10 10 10 10 9 10 10 10 11 13 13 13 14 14 15 17 18 21 28 26 27 28 18 13 12 13 13 13 12 12 11 12 13
Wind_Direction
277 276 279 285 292 296 299 299 294 289 286 287 285 288 286 288 287 283 280 276 274 272 272 271 272 271 272 273 271 271 271 269 271 268 265 263 267 274 278 277 276 274
282 281 289 299 300 297 290 287 288 286 286 285 284 287 287 287 285 282 280 279 276 272 269 264 266 268 272 271 271 273 273 271 268 266 271 274 276 270 265 269 272 272
284 292 299 302 299 294 290 287 285 286 285 286 287 285 286 286 287 283 280 278 278 273 269 267 264 266 266 269 271 271 272 273 272 276 277 276 274 269 265 263 261 266
294 300 301 296 289 287 290 290 287 287 286 288 287 288 287 286 285 284 283 281 279 277 276 269 259 259 262 265 268 269 268 268 268 268 266 265 264 264 259 254 255 261
312 309 299 292 288 288 291 291 292 291 291 289 289 289 287 287 286 285 283 282 280 278 275 277 274 269 266 265 263 263 265 268 267 266 266 267 262 259 274 289 290 285
300 290 289 287 291 296 295 294 293 294 294 293 290 290 288 286 285 283 283 283 281 280 281 277 278 274 267 264 262 263 265 267 267 267 267 266 267 272 279 280 281 277
301 297 295 294 297 296 294 293 295 295 294 294 294 288 288 285 283 283 284 282 282 278 279 281 280 278 272 264 263 264 265 265 267 265 267 267 270 268 269 273 270 263
300 301 300 303 301 297 291 293 295 296 296 295 289 287 285 285 286 285 283 283 281 281 282 282 280 280 277 269 263 263 265 263 263 265 265 265 264 267 270 271 277 287
307 304 302 290 284 280 281 285 288 289 288 285 283 284 283 282 286 288 286 285 283 282 284 282 281 277 278 275 272 268 265 264 262 263 264 264 264 266 270 272 273 274
307 295 281 283 282 283 285 288 286 281 278 278 282 285 289 291 288 290 290 287 287 285 283 284 281 279 278 274 272 272 270 268 266 262 261 262 262 265 266 269 272 273
310 296 286 284 286 287 286 285 283 282 281 282 289 290 291 295 296 296 294 291 288 287 287 283 280 280 279 277 272 269 270 270 269 268 265 263 263 264 264 265 268 267
298 298 296 292 291 290 289 288 285 284 289 290 293 295 301 301 300 299 295 292 289 288 285 283 281 279 278 276 275 272 271 270 268 266 265 264 264 263 262 262 266 267
300 288 292 296 296 292 289 292 291 290 295 300 304 303 304 304 301 297 294 292 291 289 286 285 283 281 278 275 273 271 270 269 267 265 266 265 263 262 261 263 267 267
297 298 299 300 292 287 287 293 297 302 307 306 307 305 304 302 301 298 295 292 290 289 287 285 283 281 278 275 273 271 268 266 264 266 266 266 265 262 262 263 266 267
300 302 294 293 294 296 299 303 308 308 308 307 307 305 302 299 297 296 294 294 291 287 287 284 282 280 278 276 274 271 267 264 262 260 259 261 262 262 259 258 257 259
301 301 298 298 302 310 313 314 314 316 316 313 310 305 302 298 295 291 289 290 292 291 287 284 281 279 277 278 276 274 271 266 261 256 253 249 252 257 258 256 256 257
299 299 301 304 313 316 319 322 321 319 314 309 306 303 299 297 292 290 288 287 289 289 288 285 282 280 282 282 281 278 276 274 272 270 264 261 252 250 251 254 256 262
294 298 306 313 323 326 324 321 316 314 312 310 307 306 302 297 292 283 281 284 288 290 289 288 285 285 286 287 284 282 280 277 275 273 270 266 256 256 255 263 267 270
290 307 317 325 330 326 320 316 315 314 314 312 309 304 299 296 289 288 283 291 296 298 297 295 292 291 290 289 288 285 282 280 277 272 267 266 269 265 257 266 267 270
307 317 325 328 326 321 319 318 317 313 309 304 302 303 301 298 298 302 308 306 304 300 299 298 295 297 295 293 290 287 284 283 277 273 259 257 254 257 253 255 255 264
321 332 332 328 325 320 319 316 313 309 309 309 307 305 305 307 312 312 307 305 306 305 303 300 299 299 298 297 297 295 291 289 283 278 268 264 260 256 249 247 248 248
332 333 332 326 324 321 318 316 314 312 312 312 308 306 304 302 301 302 303 304 304 304 304 302 299 300 300 299 297 296 294 290 279 272 263 256 255 258 259 253 252 255
336 335 328 323 321 319 316 314 315 316 312 310 309 309 308 307 305 304 304 303 303 301 299 298 299 302 304 302 301 301 301 294 291 285 268 257 251 245 246 251 259 259
332 331 325 321 316 312 310 308 307 302 306 311 311 311 310 307 306 303 301 300 301 300 297 302 305 305 307 306 305 303 302 302 302 295 285 273 257 243 233 242 251 258
324 329 318 309 304 301 304 306 307 310 307 308 303 302 301 302 303 302 300 300 296 296 303 307 301 301 302 302 301 303 306 302 298 296 301 300 284 252 241 248 252 256
327 320 308 300 297 298 298 297 301 307 311 311 306 302 303 302 301 300 300 299 299 299 300 299 296 295 294 299 307 312 314 311 306 304 300 300 299 283 277 253 246 252